Location: Arbon
(43.0005°N, 0.7472°E)
Time: 10:21:47
(UTC+00:00)

SR - Pass Details

Date: 04 December 2020
Orbit: 575 x 880 km, 66.7° (Epoch: 21 January)

Event Time Altitude Azimuth Distance (km) Brightness Sun altitude
Rises 15:24:35 0° 155° (SSE) 2,793 ? 7.8°
Reaches altitude 10° 15:28:22 10° 120° (ESE) 1,939 ? 7.3°
Maximum altitude 15:29:38 11° 103° (ESE) 1,884 ? 7.1°
Drops below altitude 10° 15:30:54 10° 86° (E) 1,979 ? 6.9°
Sets 15:34:55 0° 52° (NE) 2,964 ? 6.3°
